User: anonymous   Login
Location: *
(50.6089°N, 2.2719°E)
Time: 21:25:30
(UTC+00:00)
Language:

Cosmos 1076 Rocket - Orbit

View from above orbital plane
View from above orbital plane
View from above satellite
View from above satellite

Ground track
Ground track

The orbit data is extracted from the following two-line orbital elements,

1 11267U 79011B   19346.04318264  .00000063  00000-0  40025-5 0  9991
2 11267  82.5257  92.2999 0018457  90.5775 269.7558 14.88953074210561
Epoch (UTC): 12 December 2019 01:02:10
Eccentricity: 0.0018457
inclination: 82.5257°
perigee height: 588 km
apogee height: 614 km
right ascension of ascending node: 92.2999°
argument of perigee: 90.5775°
revolutions per day: 14.88953074
mean anomaly at epoch: 269.7558°
orbit number at epoch: 21056

The dashed part of the orbit path shows where the satellite is in the earth's shadow,  

DLR